Time,TemperatureF,DewpointF,PressureIn,WindDirection,WindDirectionDegrees,WindSpeedMPH,WindSpeedGustMPH,Humidity,HourlyPrecipIn,Conditions,Clouds,dailyrainin,SoftwareType,DateUTC
2013-03-25 00:00:00,52.6,41.9,30.02,ENE,67,0.0,1.0,67,0.00,,,-99.99,WeatherLink 6.0.0,2013-03-25 07:00:00,
2013-03-25 00:30:00,51.4,41.9,30.03,ENE,67,0.0,2.0,70,0.00,,,-99.99,WeatherLink 6.0.0,2013-03-25 07:30:00,
2013-03-25 01:00:00,51.0,41.9,30.03,ENE,67,0.0,1.0,71,0.00,,,-99.99,WeatherLink 6.0.0,2013-03-25 08:00:00,
2013-03-25 01:30:00,50.4,41.7,30.03,ENE,67,0.0,1.0,72,0.00,,,-99.99,WeatherLink 6.0.0,2013-03-25 08:30:00,
2013-03-25 02:00:00,50.7,41.6,30.03,ENE,67,0.0,3.0,71,0.00,,,-99.99,WeatherLink 6.0.0,2013-03-25 09:00:00,
2013-03-25 02:30:00,50.4,41.7,30.03,ENE,67,1.0,3.0,72,0.00,,,-99.99,WeatherLink 6.0.0,2013-03-25 09:30:00,
2013-03-25 03:00:00,49.3,41.4,30.02,ENE,67,1.0,3.0,74,0.00,,,-99.99,WeatherLink 6.0.0,2013-03-25 10:00:00,
2013-03-25 03:30:00,48.8,41.2,30.02,NE,45,0.0,2.0,75,0.00,,,-99.99,WeatherLink 6.0.0,2013-03-25 10:30:00,
2013-03-25 04:00:00,48.3,41.1,30.01,NE,45,0.0,2.0,76,0.00,,,-99.99,WeatherLink 6.0.0,2013-03-25 11:00:00,
2013-03-25 04:30:00,48.3,41.1,30.01,NE,45,0.0,3.0,76,0.00,,,-99.99,WeatherLink 6.0.0,2013-03-25 11:30:00,
2013-03-25 05:00:00,48.4,40.8,30.01,NE,45,0.0,2.0,75,0.00,,,-99.99,WeatherLink 6.0.0,2013-03-25 12:00:00,
2013-03-25 05:30:00,48.1,40.5,30.01,NE,45,0.0,2.0,75,0.00,,,-99.99,WeatherLink 6.0.0,2013-03-25 12:30:00,
2013-03-25 06:00:00,47.5,40.3,30.01,NE,45,1.0,3.0,76,0.00,,,-99.99,WeatherLink 6.0.0,2013-03-25 13:00:00,
2013-03-25 06:30:00,47.3,40.1,30.01,ENE,67,1.0,2.0,76,0.00,,,-99.99,WeatherLink 6.0.0,2013-03-25 13:30:00,
2013-03-25 06:50:00,47.4,39.9,30.01,NE,55,1.0,1.0,75,0.00,,,0.00,Wunderground v.1.15,2013-03-25 13:50:00,
2013-03-25 07:00:00,47.2,39.7,30.01,ENE,76,0.0,1.0,75,0.00,,,0.00,Wunderground v.1.15,2013-03-25 14:00:00,
2013-03-25 07:11:00,47.3,39.4,30.01,ENE,65,1.0,1.0,74,0.00,,,0.00,Wunderground v.1.15,2013-03-25 14:11:00,
2013-03-25 07:20:00,47.6,39.7,30.01,NE,34,2.0,2.0,74,0.00,,,0.00,Wunderground v.1.15,2013-03-25 14:20:00,
2013-03-25 07:31:00,48.1,39.5,30.02,ENE,76,2.0,2.0,72,0.00,,,0.00,Wunderground v.1.15,2013-03-25 14:31:00,
2013-03-25 07:40:00,48.7,39.7,30.02,NE,55,1.0,1.0,71,0.00,,,0.00,Wunderground v.1.15,2013-03-25 14:40:00,
2013-03-25 07:50:00,49.1,39.7,30.02,NE,55,1.0,1.0,70,0.00,,,0.00,Wunderground v.1.15,2013-03-25 14:50:00,
2013-03-25 08:01:00,49.3,39.6,30.02,NE,53,1.0,1.0,69,0.00,,,0.00,Wunderground v.1.15,2013-03-25 15:01:00,
2013-03-25 08:11:00,49.7,39.9,30.02,NE,53,0.0,1.0,69,0.00,,,0.00,Wunderground v.1.15,2013-03-25 15:11:00,
2013-03-25 08:31:00,50.8,40.6,30.03,ENE,73,0.0,0.0,68,0.00,,,0.00,Wunderground v.1.15,2013-03-25 15:31:00,
2013-03-25 08:40:00,51.5,40.9,30.03,ENE,69,0.0,0.0,67,0.00,,,0.00,Wunderground v.1.15,2013-03-25 15:40:00,
2013-03-25 09:01:00,51.9,41.3,30.02,East,98,1.0,1.0,67,0.00,,,0.00,Wunderground v.1.15,2013-03-25 16:01:00,
2013-03-25 09:10:00,52.4,41.4,30.03,East,97,1.0,1.0,66,0.00,,,0.00,Wunderground v.1.15,2013-03-25 16:10:00,
2013-03-25 09:30:00,54.4,42.1,30.03,ESE,104,1.0,1.0,63,0.00,,,0.00,Wunderground v.1.15,2013-03-25 16:30:00,
2013-03-25 09:41:00,55.7,42.0,30.03,ESE,103,1.0,1.0,60,0.00,,,0.00,Wunderground v.1.15,2013-03-25 16:41:00,
2013-03-25 09:51:00,57.1,42.9,30.03,East,101,1.0,1.0,59,0.00,,,0.00,Wunderground v.1.15,2013-03-25 16:51:00,
2013-03-25 10:00:00,58.4,43.7,30.03,East,101,1.0,1.0,58,0.00,,,0.00,Wunderground v.1.15,2013-03-25 17:00:00,
2013-03-25 10:11:00,60.0,43.8,30.03,ESE,105,1.0,1.0,55,0.00,,,0.00,Wunderground v.1.15,2013-03-25 17:11:00,
2013-03-25 10:20:00,61.3,43.5,30.03,East,97,1.0,1.0,52,0.00,,,0.00,Wunderground v.1.15,2013-03-25 17:20:00,
2013-03-25 10:31:00,62.1,42.7,30.03,SE,133,1.0,2.0,49,0.00,,,0.00,Wunderground v.1.15,2013-03-25 17:31:00,
2013-03-25 10:40:00,62.6,43.2,30.03,ESE,107,1.0,2.0,49,0.00,,,0.00,Wunderground v.1.15,2013-03-25 17:40:00,
2013-03-25 10:51:00,63.3,43.3,30.03,ESE,109,1.0,1.0,48,0.00,,,0.00,Wunderground v.1.15,2013-03-25 17:51:00,
2013-03-25 11:01:00,64.5,44.4,30.03,East,88,1.0,2.0,48,0.00,,,0.00,Wunderground v.1.15,2013-03-25 18:01:00,
2013-03-25 11:11:00,64.6,43.3,30.02,SE,128,3.0,3.0,46,0.00,,,0.00,Wunderground v.1.15,2013-03-25 18:11:00,
2013-03-25 11:20:00,64.8,43.5,30.02,SE,133,3.0,5.0,46,0.00,,,0.00,Wunderground v.1.15,2013-03-25 18:20:00,
2013-03-25 11:31:00,65.2,43.9,30.02,SE,140,3.0,3.0,46,0.00,,,0.00,Wunderground v.1.15,2013-03-25 18:31:00,
2013-03-25 11:40:00,65.7,43.2,30.02,SSE,167,3.0,5.0,44,0.00,,,0.00,Wunderground v.1.15,2013-03-25 18:40:00,
2013-03-25 11:51:00,66.2,44.8,30.02,SSW,205,3.0,3.0,46,0.00,,,0.00,Wunderground v.1.15,2013-03-25 18:51:00,
2013-03-25 12:01:00,66.4,46.1,30.02,SE,142,2.0,4.0,48,0.00,,,0.00,Wunderground v.1.15,2013-03-25 19:01:00,
2013-03-25 12:11:00,65.9,47.3,30.02,SSW,211,3.0,3.0,51,0.00,,,0.00,Wunderground v.1.15,2013-03-25 19:11:00,
2013-03-25 12:20:00,65.9,45.6,30.02,SSW,210,2.0,2.0,48,0.00,,,0.00,Wunderground v.1.15,2013-03-25 19:20:00,
2013-03-25 12:31:00,66.1,46.9,30.02,WSW,246,3.0,3.0,50,0.00,,,0.00,Wunderground v.1.15,2013-03-25 19:31:00,
2013-03-25 12:51:00,66.8,47.6,30.01,South,178,3.0,6.0,50,0.00,,,0.00,Wunderground v.1.15,2013-03-25 19:51:00,
2013-03-25 13:00:00,67.3,47.5,30.01,SW,225,2.0,2.0,49,0.00,,,0.00,Wunderground v.1.15,2013-03-25 20:00:00,
2013-03-25 13:10:00,66.8,47.0,30.01,SSE,161,3.0,4.0,49,0.00,,,0.00,Wunderground v.1.15,2013-03-25 20:10:00,
2013-03-25 13:21:00,66.4,45.5,30.01,WSW,243,3.0,4.0,47,0.00,,,0.00,Wunderground v.1.15,2013-03-25 20:21:00,
2013-03-25 13:30:00,67.1,45.6,30.00,SSW,198,3.0,3.0,46,0.00,,,0.00,Wunderground v.1.15,2013-03-25 20:30:00,
2013-03-25 13:50:00,67.7,45.6,30.00,SW,217,3.0,3.0,45,0.00,,,0.00,Wunderground v.1.15,2013-03-25 20:50:00,
2013-03-25 14:01:00,67.7,45.0,30.00,South,174,2.0,2.0,44,0.00,,,0.00,Wunderground v.1.15,2013-03-25 21:01:00,
2013-03-25 14:11:00,66.5,45.1,30.00,South,184,4.0,6.0,46,0.00,,,0.00,Wunderground v.1.15,2013-03-25 21:11:00,
2013-03-25 14:21:00,66.5,45.1,30.00,SSW,211,5.0,5.0,46,0.00,,,0.00,Wunderground v.1.15,2013-03-25 21:21:00,
2013-03-25 14:30:00,65.8,44.4,30.00,SSW,196,6.0,6.0,46,0.00,,,0.00,Wunderground v.1.15,2013-03-25 21:30:00,
2013-03-25 14:40:00,67.0,43.8,29.99,South,188,4.0,4.0,43,0.00,,,0.00,Wunderground v.1.15,2013-03-25 21:40:00,
2013-03-25 14:51:00,67.4,45.3,29.99,SW,218,3.0,3.0,45,0.00,,,0.00,Wunderground v.1.15,2013-03-25 21:51:00,
2013-03-25 15:01:00,67.3,44.0,29.99,SW,220,4.0,4.0,43,0.00,,,0.00,Wunderground v.1.15,2013-03-25 22:01:00,
2013-03-25 15:11:00,67.7,44.4,29.98,South,184,4.0,4.0,43,0.00,,,0.00,Wunderground v.1.15,2013-03-25 22:11:00,
2013-03-25 15:20:00,67.9,45.2,29.98,WSW,252,3.0,3.0,44,0.00,,,0.00,Wunderground v.1.15,2013-03-25 22:20:00,
2013-03-25 15:31:00,68.5,45.1,29.98,South,171,3.0,3.0,43,0.00,,,0.00,Wunderground v.1.15,2013-03-25 22:31:00,
2013-03-25 15:50:00,66.6,45.2,29.97,SSW,199,3.0,3.0,46,0.00,,,0.00,Wunderground v.1.15,2013-03-25 22:50:00,
2013-03-25 16:01:00,66.7,45.8,29.97,South,191,1.0,1.0,47,0.00,,,0.00,Wunderground v.1.15,2013-03-25 23:01:00,
2013-03-25 16:11:00,66.1,45.3,29.97,SSW,195,2.0,2.0,47,0.00,,,0.00,Wunderground v.1.15,2013-03-25 23:11:00,
2013-03-25 16:20:00,66.1,46.4,29.96,SW,215,2.0,2.0,49,0.00,,,0.00,Wunderground v.1.15,2013-03-25 23:20:00,
2013-03-25 16:31:00,66.3,45.5,29.97,South,170,3.0,3.0,47,0.00,,,0.00,Wunderground v.1.15,2013-03-25 23:31:00,
2013-03-25 16:41:00,66.6,45.7,29.96,South,188,3.0,3.0,47,0.00,,,0.00,Wunderground v.1.15,2013-03-25 23:41:00,
2013-03-25 16:51:00,66.3,44.9,29.95,South,185,3.0,3.0,46,0.00,,,0.00,Wunderground v.1.15,2013-03-25 23:51:00,
2013-03-25 17:00:00,66.4,45.0,29.94,South,176,2.0,3.0,46,0.00,,,0.00,Wunderground v.1.15,2013-03-26 00:00:00,
2013-03-25 17:10:00,65.8,43.9,29.94,South,171,5.0,5.0,45,0.00,,,0.00,Wunderground v.1.15,2013-03-26 00:10:00,
2013-03-25 17:21:00,65.9,44.5,29.94,SW,219,4.0,4.0,46,0.00,,,0.00,Wunderground v.1.15,2013-03-26 00:21:00,
2013-03-25 17:31:00,65.5,45.3,29.94,SW,216,3.0,3.0,48,0.00,,,0.00,Wunderground v.1.15,2013-03-26 00:31:00,
2013-03-25 17:40:00,64.8,45.2,29.94,WSW,246,2.0,3.0,49,0.00,,,0.00,Wunderground v.1.15,2013-03-26 00:40:00,
2013-03-25 17:51:00,63.9,45.9,29.95,SW,217,2.0,2.0,52,0.00,,,0.00,Wunderground v.1.15,2013-03-26 00:51:00,
2013-03-25 18:04:00,63.6,46.1,29.95,SSW,202,2.0,7.0,53,0.00,,,-99.99,WeatherLink 6.0.0,2013-03-26 01:04:00,
2013-03-25 18:11:00,62.9,45.5,29.94,SSW,196,1.0,1.0,53,0.00,,,0.00,Wunderground v.1.15,2013-03-26 01:11:00,
2013-03-25 18:20:00,62.3,44.9,29.94,South,177,2.0,5.0,53,0.00,,,0.00,Wunderground v.1.15,2013-03-26 01:20:00,
2013-03-25 18:31:00,62.3,45.4,29.94,South,178,4.0,4.0,54,0.00,,,0.00,Wunderground v.1.15,2013-03-26 01:31:00,
2013-03-25 18:51:00,61.3,45.9,29.94,SSW,202,3.0,3.0,57,0.00,,,0.00,Wunderground v.1.15,2013-03-26 01:51:00,
2013-03-25 19:01:00,60.7,46.3,29.94,SSW,194,3.0,3.0,59,0.00,,,0.00,Wunderground v.1.15,2013-03-26 02:01:00,
2013-03-25 19:11:00,60.3,45.9,29.94,SSW,211,2.0,3.0,59,0.00,,,0.00,Wunderground v.1.15,2013-03-26 02:11:00,
2013-03-25 19:20:00,59.9,46.0,29.94,South,186,3.0,3.0,60,0.00,,,0.00,Wunderground v.1.15,2013-03-26 02:20:00,
2013-03-25 19:31:00,59.4,45.1,29.94,SSW,202,2.0,3.0,59,0.00,,,0.00,Wunderground v.1.15,2013-03-26 02:31:00,
2013-03-25 19:41:00,59.0,45.1,29.94,South,186,3.0,3.0,60,0.00,,,0.00,Wunderground v.1.15,2013-03-26 02:41:00,
2013-03-25 19:51:00,58.8,44.9,29.94,SSW,196,2.0,3.0,60,0.00,,,0.00,Wunderground v.1.15,2013-03-26 02:51:00,
2013-03-25 20:00:00,58.7,45.3,29.94,South,180,3.0,3.0,61,0.00,,,0.00,Wunderground v.1.15,2013-03-26 03:00:00,
2013-03-25 20:10:00,58.3,45.8,29.95,SSW,212,1.0,3.0,63,0.00,,,0.00,Wunderground v.1.15,2013-03-26 03:10:00,
2013-03-25 20:21:00,57.3,46.0,29.94,South,170,2.0,2.0,66,0.00,,,0.00,Wunderground v.1.15,2013-03-26 03:21:00,
2013-03-25 20:31:00,56.3,46.3,29.95,SSW,198,2.0,2.0,69,0.00,,,0.00,Wunderground v.1.15,2013-03-26 03:31:00,
2013-03-25 20:40:00,55.5,45.1,29.95,SSW,198,3.0,3.0,68,0.00,,,0.00,Wunderground v.1.15,2013-03-26 03:40:00,
2013-03-25 20:51:00,55.2,44.4,29.96,SSW,203,2.0,5.0,67,0.00,,,0.00,Wunderground v.1.15,2013-03-26 03:51:00,
2013-03-25 21:00:00,55.0,44.6,29.97,SSW,207,3.0,3.0,68,0.00,,,0.00,Wunderground v.1.15,2013-03-26 04:00:00,
2013-03-25 21:04:00,55.1,44.7,29.97,SSW,202,3.0,7.0,68,0.00,,,-99.99,WeatherLink 6.0.0,2013-03-26 04:04:00,
2013-03-25 21:30:00,53.3,41.8,29.99,SSW,202,3.0,9.0,65,0.00,,,-99.99,WeatherLink 6.0.0,2013-03-26 04:30:00,
2013-03-25 22:00:00,51.6,41.0,30.00,South,180,4.0,9.0,67,0.00,,,-99.99,WeatherLink 6.0.0,2013-03-26 05:00:00,
2013-03-25 22:30:00,50.8,41.0,29.98,East,90,2.0,5.0,69,0.00,,,-99.99,WeatherLink 6.0.0,2013-03-26 05:30:00,
2013-03-25 23:00:00,51.5,41.3,29.99,East,90,2.0,5.0,68,0.00,,,-99.99,WeatherLink 6.0.0,2013-03-26 06:00:00,
2013-03-25 23:30:00,52.1,41.5,29.98,East,90,1.0,3.0,67,0.00,,,-99.99,WeatherLink 6.0.0,2013-03-26 06:30:00,